Temp
9 9 9 9 9 9 9 9 8 8 8 8 8 7 7 7 7 7 7 7 7 7 7 7 6 6 6 6 8 7 6 6 6 6 6 6 5 4 3 3 4 3 4 4 5 4 4
10 9 9 9 9 8 8 7 7 7 8 7 7 7 7 7 7 7 7 7 7 7 7 6 6 6 5 4 6 6 6 6 6 6 5 5 4 4 4 3 3 3 3 3 4 4 4
10 9 9 9 8 8 7 7 8 8 8 7 7 7 7 7 7 7 7 7 6 6 6 6 5 4 4 6 6 5 5 5 5 5 4 4 4 4 3 3 3 3 2 3 3 4 4
9 8 8 8 8 8 8 8 8 7 8 7 7 6 6 7 6 7 7 7 6 5 5 5 3 3 5 5 5 5 5 4 4 4 4 3 4 3 3 3 3 3 3 2 4 5 5
9 8 8 8 8 8 8 8 8 8 8 7 7 6 7 6 6 6 6 6 6 5 4 4 3 2 4 4 4 4 4 4 4 4 4 4 4 3 3 2 -1 -0 -1 2 3 5 5
8 8 8 8 8 7 7 7 7 7 7 7 7 6 6 6 6 7 6 6 5 4 3 3 2 2 4 5 5 4 4 4 4 4 4 3 3 1 2 2 1 -1 0 2 3 5 4
8 7 7 7 7 7 7 7 7 7 7 7 7 6 6 6 7 6 6 6 5 4 3 5 4 4 5 5 4 4 4 3 3 4 2 3 2 1 1 2 2 2 2 2 3 4 4
7 6 7 7 7 6 6 7 7 7 6 7 7 6 6 6 6 5 5 4 2 2 1 4 3 3 4 4 4 4 3 3 3 3 2 3 2 3 3 2 1 1 2 3 3 4 3
6 6 6 6 5 5 6 6 6 6 6 6 6 6 6 6 6 5 4 3 2 2 1 3 4 3 4 3 4 4 3 3 2 3 2 2 4 4 3 3 2 3 3 3 3 4 4
7 6 6 6 6 6 6 6 6 6 6 6 6 6 6 6 5 4 4 3 3 2 -1 3 4 3 3 4 3 4 4 4 3 3 4 4 4 4 3 2 1 3 4 4 3 2 4
7 6 6 6 6 6 6 6 6 6 6 6 6 6 5 6 5 4 3 3 3 2 2 4 3 4 4 4 4 4 4 4 4 4 3 5 4 3 1 1 2 2 4 4 4 4 4
9 7 6 6 6 6 6 6 6 6 6 6 6 6 6 6 5 3 3 3 2 1 1 2 3 3 3 3 4 3 3 4 4 4 4 4 5 4 4 5 3 5 3 4 4 5 5
8 8 8 7 7 6 6 6 6 6 6 5 5 6 5 5 5 4 4 3 -0 -1 5 4 4 3 2 2 3 4 4 3 4 4 4 5 5 5 5 4 4 3 2 3 2 5 5
8 8 8 8 7 6 6 5 5 5 6 5 5 6 5 5 5 4 4 0 -1 3 4 5 5 5 3 4 4 4 4 4 4 4 4 5 4 5 6 6 7 5 5 5 6 5 7
9 8 8 7 7 7 6 6 5 5 5 5 5 5 5 4 4 4 3 -3 -0 2 4 3 3 4 4 4 4 3 4 3 3 3 4 5 5 7 6 8 8 7 5 7 5 6 6
8 8 8 8 8 7 6 5 5 5 5 5 4 5 4 4 4 3 -1 2 2 3 4 4 3 4 2 3 3 2 4 5 4 3 3 4 4 5 6 7 7 6 6 5 5 6 6
8 8 7 7 7 7 6 5 5 5 5 4 4 4 3 3 3 3 -3 -1 2 4 5 4 3 2 1 2 1 3 3 4 4 3 3 3 3 4 5 6 5 5 4 4 4 4 5
7 7 7 7 7 6 6 5 4 4 4 4 4 1 3 3 1 -2 -1 -0 3 3 4 4 3 3 2 2 1 1 3 4 4 3 3 4 3 2 3 6 5 5 4 3 3 3 3
7 7 7 7 7 6 6 5 5 4 3 2 3 3 3 2 -3 -4 -1 1 2 3 4 4 3 3 3 1 2 2 3 4 4 2 2 2 2 2 2 4 2 3 4 5 3 2 2
7 6 7 6 6 6 5 5 5 4 3 2 3 1 2 2 0 -1 -0 2 0 3 3 3 2 2 0 1 1 2 2 4 4 4 4 2 2 3 2 3 3 3 3 3 2 2 2
6 6 6 6 5 5 5 5 4 4 4 2 2 -0 0 -4 -2 -3 -1 1 -0 -2 0 1 0 0 -0 0 1 1 1 2 3 3 0 1 1 2 2 2 2 2 2 2 2 2 1
5 5 5 5 5 6 5 3 3 4 3 2 1 0 -0 -0 0 -2 -2 -1 -2 -2 -1 -2 -1 -0 -0 -1 -1 -0 1 0 1 1 1 0 -0 1 1 2 2 2 2 1 2 2 1
5 5 5 5 4 4 3 2 1 2 2 1 -0 -1 -0 -1 -4 -1 -0 -1 -1 -1 -0 -1 -1 -1 -1 -1 -1 -1 -1 -1 -0 0 -1 0 -1 -4 -0 1 1 -0 2 2 2 1 1
5 5 4 4 3 2 0 -1 -1 -1 -0 -0 -1 -1 -1 -3 -3 -3 -1 -1 -2 -2 -2 -1 -1 -3 -0 -1 -2 -1 -2 -2 -1 -1 0 0 -0 -0 -1 -2 -2 2 1 2 1 -0 -1
5 4 3 4 4 3 2 -0 -1 -1 -1 -1 -1 -1 -1 -2 -1 -2 -3 -2 -1 -1 -3 -2 -0 -0 -1 -2 -2 -6 -4 -4 -3 -3 -3 -1 -1 -0 -0 -3 -1 1 0 0 -0 -2 -4
5 5 4 4 4 4 3 2 0 -1 -1 -1 -2 -1 -1 -2 -5 -1 -1 -2 -5 -3 -5 -1 -0 -1 -2 -2 -5 -6 -5 -5 -3 -2 -3 -2 -1 -1 -5 -4 -4 -1 -1 -1 -2 -1 -5
5 5 4 4 4 4 1 -0 -2 -2 -2 -2 -2 -2 -1 -2 -1 -2 -2 -2 -2 -3 -4 -3 -2 -2 -3 -7 -6 -7 -6 -6 -3 -4 -4 -6 -4 -2 -1 -0 -4 -4 -6 -4 0 -4 -7
5 4 3 4 3 3 2 1 -1 -2 -2 -2 -2 -2 -2 -2 -2 -2 -2 -2 -2 -3 -3 -2 -3 -5 -7 -6 -5 -5 -2 -4 -3 -4 -1 -3 -2 -3 -3 -2 -2 -8 -5 -4 -9 -9 -10
4 4 3 3 3 3 2 1 0 -1 -2 -2 -2 -2 -2 -2 -2 -2 -2 -2 -2 -2 -2 -2 -2 -3 -3 -3 -4 -3 -4 -8 -6 -4 -6 -3 -4 -2 -3 -4 -8 -11 -11 -12 -12 -12 -12
Height
1550 1548 1545 1544 1541 1539 1537 1534 1532 1529 1526 1524 1521 1518 1515 1512 1509 1506 1503 1501 1500 1498 1497 1495 1494 1493 1493 1491 1488 1487 1487 1487 1487 1487 1486 1487 1488 1491 1494 1494 1493 1492 1489 1486 1484 1481 1480
1549 1548 1546 1544 1542 1540 1537 1534 1531 1528 1525 1523 1520 1517 1515 1511 1507 1504 1501 1498 1496 1494 1493 1493 1492 1490 1490 1491 1486 1485 1486 1486 1486 1486 1486 1486 1487 1490 1492 1493 1494 1491 1490 1487 1481 1473 1475
1550 1549 1547 1544 1541 1538 1536 1533 1530 1527 1525 1521 1518 1515 1511 1508 1505 1502 1500 1497 1494 1492 1490 1489 1488 1487 1486 1484 1483 1484 1485 1485 1486 1486 1486 1488 1489 1490 1492 1493 1492 1491 1491 1485 1476 1473 1472
1551 1549 1546 1544 1541 1538 1535 1532 1530 1527 1523 1520 1516 1514 1511 1508 1504 1501 1497 1494 1492 1490 1489 1488 1487 1486 1481 1478 1479 1480 1483 1484 1484 1486 1487 1488 1489 1489 1490 1491 1490 1489 1489 1487 1473 1470 1468
1552 1549 1547 1544 1542 1539 1536 1533 1530 1527 1524 1521 1517 1513 1510 1507 1503 1500 1497 1493 1489 1487 1486 1486 1486 1486 1479 1477 1476 1477 1479 1483 1485 1485 1486 1487 1488 1488 1489 1491 1496 1493 1499 1487 1477 1467 1468
1551 1549 1547 1545 1542 1539 1536 1534 1530 1526 1522 1520 1518 1514 1511 1507 1502 1498 1494 1491 1489 1486 1485 1485 1485 1488 1479 1476 1475 1476 1478 1479 1483 1485 1486 1487 1486 1487 1487 1489 1498 1500 1493 1485 1480 1468 1467
1551 1549 1547 1543 1540 1538 1535 1532 1529 1527 1524 1521 1517 1513 1509 1506 1502 1497 1493 1490 1492 1489 1488 1483 1480 1477 1476 1476 1476 1477 1479 1480 1481 1484 1485 1485 1486 1481 1478 1477 1477 1479 1482 1481 1472 1466 1469
1552 1548 1545 1542 1539 1537 1535 1532 1529 1526 1523 1520 1516 1512 1508 1504 1499 1495 1493 1493 1493 1494 1484 1476 1475 1476 1476 1476 1475 1476 1479 1481 1480 1479 1481 1483 1476 1471 1473 1477 1479 1480 1479 1470 1467 1460 1466
1551 1548 1544 1541 1538 1536 1533 1531 1527 1525 1522 1519 1516 1512 1508 1502 1497 1496 1493 1492 1491 1491 1487 1473 1472 1473 1473 1477 1474 1473 1476 1477 1477 1477 1477 1477 1466 1463 1468 1471 1473 1469 1469 1464 1462 1457 1459
1548 1545 1543 1540 1538 1534 1531 1529 1526 1524 1521 1518 1515 1510 1505 1501 1498 1494 1492 1491 1489 1488 1491 1476 1471 1471 1472 1474 1474 1471 1472 1475 1475 1472 1472 1470 1462 1462 1465 1466 1467 1465 1452 1455 1456 1467 1455
1544 1542 1540 1538 1535 1533 1529 1526 1523 1522 1519 1516 1512 1508 1504 1498 1497 1494 1495 1491 1490 1489 1502 1470 1468 1469 1468 1471 1470 1468 1470 1473 1471 1470 1473 1460 1459 1462 1465 1459 1457 1455 1446 1448 1447 1448 1448
1541 1538 1535 1533 1529 1527 1525 1523 1521 1518 1516 1513 1510 1508 1504 1500 1497 1494 1492 1491 1491 1498 1499 1475 1470 1470 1471 1468 1467 1467 1468 1471 1469 1468 1465 1458 1456 1455 1450 1447 1448 1442 1446 1441 1436 1438 1431
1538 1535 1531 1528 1526 1523 1522 1521 1517 1515 1513 1511 1510 1506 1502 1499 1497 1494 1492 1491 1501 1509 1474 1476 1473 1471 1472 1468 1466 1465 1463 1465 1464 1462 1460 1454 1444 1445 1446 1447 1444 1447 1453 1448 1454 1431 1427
1535 1531 1528 1524 1521 1520 1519 1518 1516 1513 1511 1509 1508 1506 1502 1499 1497 1494 1492 1494 1514 1486 1479 1474 1470 1468 1469 1463 1463 1463 1462 1460 1458 1461 1457 1451 1448 1438 1437 1437 1435 1439 1440 1439 1425 1425 1409
1532 1529 1525 1522 1520 1518 1516 1514 1512 1511 1508 1508 1506 1504 1501 1498 1497 1495 1495 1514 1500 1487 1480 1478 1471 1470 1466 1465 1465 1464 1461 1459 1454 1453 1452 1445 1443 1432 1432 1431 1433 1432 1435 1428 1433 1415 1412
1530 1527 1524 1521 1517 1516 1514 1512 1511 1509 1508 1506 1504 1503 1500 1498 1496 1494 1497 1496 1489 1482 1480 1478 1479 1472 1477 1470 1467 1467 1458 1450 1450 1451 1451 1447 1440 1437 1431 1429 1429 1433 1432 1432 1429 1411 1400
1529 1526 1523 1520 1517 1515 1514 1513 1511 1508 1506 1503 1502 1500 1499 1499 1497 1496 1507 1499 1488 1482 1481 1481 1479 1479 1478 1476 1474 1467 1461 1451 1450 1451 1451 1450 1449 1441 1437 1432 1433 1434 1435 1435 1437 1428 1418
1529 1526 1522 1520 1516 1515 1513 1511 1509 1508 1504 1503 1502 1503 1499 1499 1500 1500 1500 1494 1489 1483 1481 1480 1478 1480 1478 1475 1473 1469 1459 1454 1451 1452 1451 1447 1449 1448 1441 1426 1431 1431 1435 1438 1442 1437 1435
1528 1525 1522 1520 1517 1515 1513 1511 1508 1506 1506 1505 1503 1501 1499 1499 1508 1506 1496 1493 1488 1484 1481 1481 1480 1476 1474 1476 1473 1466 1459 1454 1452 1453 1452 1452 1448 1447 1442 1433 1437 1436 1430 1430 1436 1437 1429
1528 1525 1522 1521 1518 1515 1513 1511 1508 1506 1505 1505 1504 1502 1500 1499 1501 1502 1499 1491 1491 1485 1481 1479 1478 1475 1476 1471 1470 1464 1461 1453 1451 1451 1450 1453 1444 1443 1445 1435 1436 1434 1431 1428 1435 1434 1424
1529 1525 1523 1520 1518 1516 1514 1512 1510 1508 1504 1506 1505 1505 1506 1507 1502 1502 1501 1495 1494 1494 1485 1482 1478 1477 1477 1471 1467 1463 1459 1456 1451 1448 1449 1451 1445 1441 1436 1436 1435 1433 1432 1425 1427 1427 1426
1528 1525 1523 1521 1518 1516 1513 1513 1511 1507 1506 1506 1507 1507 1506 1504 1500 1498 1499 1496 1496 1492 1490 1484 1480 1479 1478 1475 1473 1463 1461 1459 1453 1448 1446 1445 1442 1438 1434 1431 1430 1428 1423 1424 1419 1416 1416
1527 1525 1522 1520 1518 1515 1513 1512 1511 1508 1505 1504 1505 1506 1505 1502 1501 1500 1498 1496 1493 1491 1486 1484 1480 1477 1474 1470 1465 1461 1456 1451 1448 1446 1447 1443 1443 1452 1434 1430 1430 1433 1418 1415 1415 1418 1418
1526 1524 1522 1519 1516 1514 1513 1512 1510 1507 1507 1506 1506 1506 1505 1505 1499 1501 1499 1498 1495 1492 1488 1481 1478 1476 1470 1465 1458 1450 1444 1440 1440 1438 1440 1437 1439 1437 1437 1442 1448 1416 1416 1416 1417 1422 1423
1524 1523 1521 1518 1515 1513 1511 1511 1510 1508 1508 1507 1506 1505 1506 1504 1499 1498 1496 1494 1491 1488 1484 1478 1474 1472 1469 1463 1458 1458 1449 1443 1437 1436 1436 1435 1435 1433 1432 1442 1428 1415 1419 1420 1421 1426 1430
1522 1521 1520 1517 1514 1512 1510 1508 1507 1508 1504 1504 1504 1503 1503 1503 1498 1493 1492 1492 1491 1487 1484 1475 1472 1469 1467 1465 1466 1474 1467 1458 1448 1436 1435 1434 1434 1435 1449 1447 1451 1422 1422 1422 1420 1419 1433
1521 1519 1518 1515 1512 1509 1506 1505 1506 1503 1503 1501 1501 1501 1500 1498 1493 1493 1492 1490 1487 1483 1481 1474 1471 1468 1467 1472 1475 1475 1467 1457 1452 1450 1444 1448 1440 1434 1429 1424 1432 1432 1429 1422 1416 1439 1437
1519 1517 1516 1514 1511 1508 1505 1503 1503 1502 1501 1499 1499 1498 1498 1495 1490 1488 1488 1488 1485 1482 1479 1473 1472 1471 1470 1475 1469 1466 1457 1458 1452 1447 1440 1444 1437 1437 1435 1432 1432 1438 1429 1430 1451 1444 1441
1517 1515 1514 1512 1509 1505 1503 1501 1499 1498 1497 1496 1494 1494 1493 1493 1487 1484 1481 1480 1480 1479 1478 1474 1472 1470 1469 1468 1468 1463 1464 1466 1461 1456 1446 1445 1446 1440 1440 1441 1451 1451 1451 1453 1451 1446 1442
Wind_Speed
12 13 12 12 13 14 14 15 16 15 16 16 18 19 19 17 17 16 15 14 12 11 10 11 11 11 9 6 7 7 6 5 2 2 2 2 5 2 0 2 5 3 3 9 16 26 23
11 13 13 13 13 13 14 15 14 15 15 18 18 19 17 17 17 16 15 13 11 10 10 9 10 11 9 5 4 8 8 6 3 1 2 3 5 2 0 2 1 3 12 18 19 27 18
12 14 15 15 15 14 14 13 14 15 17 18 18 17 16 17 17 16 14 13 11 10 10 9 9 10 11 13 8 7 8 6 4 2 4 4 3 3 2 2 4 6 8 8 9 7 5
14 15 15 16 17 17 15 16 17 18 20 20 19 18 18 18 18 18 17 15 13 12 11 9 8 9 8 7 8 11 11 6 4 2 2 1 1 2 4 3 4 3 3 5 4 0 4
14 14 15 16 17 18 18 17 16 18 22 20 21 21 21 21 19 19 19 18 16 13 10 8 8 7 8 7 12 13 11 7 5 4 2 3 3 3 0 1 4 4 3 3 8 6 3
13 15 16 17 19 19 18 18 17 19 20 19 20 21 22 23 23 22 18 15 13 10 6 6 7 5 9 5 7 13 13 10 6 5 4 6 3 1 2 4 4 4 4 5 6 4 5
14 15 16 16 17 18 17 18 18 18 18 18 21 20 23 26 26 22 13 13 7 3 6 9 5 4 0 4 8 9 16 13 9 6 5 5 5 12 12 13 2 2 4 11 11 15 9
16 16 17 17 17 17 17 19 16 17 17 17 20 22 23 27 24 14 13 7 5 10 12 17 21 22 10 8 5 10 15 10 8 7 4 4 12 10 8 8 10 10 17 18 10 19 7
17 18 20 18 18 18 17 18 16 18 18 18 21 24 25 27 18 10 11 5 9 10 6 8 4 5 5 14 5 12 17 7 4 7 8 9 4 3 3 7 9 13 15 16 14 7 9
18 19 21 19 16 17 18 18 17 17 17 19 20 24 26 29 10 15 7 7 9 7 3 4 2 1 4 6 5 16 17 6 3 7 8 9 10 9 4 7 9 10 12 19 19 3 3
19 17 17 17 18 14 16 17 17 17 17 17 18 23 24 26 18 11 9 10 7 4 4 3 2 3 4 5 3 4 15 9 6 6 4 6 2 5 7 8 10 10 6 8 12 11 11
21 19 19 18 17 15 15 15 18 17 14 15 18 20 22 21 17 14 10 8 4 4 6 3 1 1 0 4 3 4 7 12 5 6 11 18 7 5 7 4 10 5 5 10 11 5 6
22 19 17 17 14 11 13 14 16 15 17 15 15 17 19 18 15 12 7 4 4 4 5 6 2 1 3 4 3 7 6 7 4 4 5 6 9 7 9 4 2 3 3 4 4 3 6
20 18 16 16 12 12 12 13 13 13 15 14 17 16 19 13 12 9 6 4 3 2 2 4 4 4 5 3 3 5 2 4 13 9 4 4 5 8 9 5 3 6 5 3 6 3 8
17 15 14 15 14 12 12 11 9 14 13 14 13 15 16 10 9 7 4 3 5 4 3 7 9 2 3 2 2 3 5 4 4 14 6 4 5 2 5 2 2 1 4 2 6 16 10
13 13 13 14 14 11 10 8 8 11 10 13 11 16 12 6 8 5 4 5 4 3 4 2 3 2 2 5 5 2 3 3 2 1 3 3 6 5 6 3 2 3 4 3 3 5 5
12 12 13 14 14 13 11 7 7 8 10 9 12 8 5 7 12 2 2 5 6 7 3 2 3 4 4 3 2 2 6 4 2 1 0 2 3 1 4 3 0 2 2 2 3 4 4
12 12 13 13 13 13 11 9 7 9 9 7 6 3 6 11 4 2 2 3 7 6 1 4 1 1 4 3 4 4 5 3 4 3 5 1 3 4 8 14 6 3 4 3 1 4 4
10 10 11 12 13 13 13 11 7 7 5 6 7 4 5 6 1 3 5 5 6 4 3 3 3 5 1 4 4 4 4 5 5 3 3 3 3 4 6 3 3 4 1 3 3 4 8
8 10 11 12 13 12 13 12 11 8 4 3 4 3 2 3 0 1 4 7 5 10 5 5 4 3 3 4 6 6 4 3 6 3 4 6 3 6 7 7 2 8 14 13 3 6 10
7 9 10 11 12 13 15 14 12 12 9 5 2 2 1 3 3 2 2 6 8 6 5 9 3 4 5 4 5 5 6 4 10 10 2 3 4 6 11 12 10 12 14 17 14 13 10
7 8 10 11 12 13 13 14 14 11 7 2 2 3 3 8 7 3 3 3 4 3 3 7 4 10 13 11 11 22 17 7 8 3 2 3 4 2 10 10 11 13 14 12 16 16 10
6 7 8 10 12 13 14 15 15 12 9 3 3 2 3 5 1 3 4 4 10 14 9 7 12 14 12 12 14 24 23 22 13 9 5 3 1 2 9 5 6 6 3 3 3 2 4
5 7 8 10 11 12 13 13 14 12 12 11 8 4 2 4 1 2 6 15 8 9 8 17 17 3 9 26 26 21 23 24 20 17 16 11 7 3 3 3 3 2 2 2 3 8 11
5 7 7 10 12 12 12 10 7 8 9 9 8 5 3 3 7 9 4 6 17 22 7 10 13 13 20 17 5 6 5 5 3 2 4 11 7 3 3 3 5 2 4 3 2 5 11
5 7 9 11 12 13 13 12 10 6 8 8 6 6 8 4 4 7 8 10 4 4 5 7 13 10 8 1 3 3 3 4 5 7 3 1 5 2 2 2 5 1 4 13 8 2 13
6 8 10 12 13 13 13 14 15 10 7 10 11 10 10 8 12 5 4 5 7 4 3 7 7 10 5 2 1 2 4 2 3 3 4 3 2 3 7 5 3 8 18 16 2 3 17
7 10 11 13 14 14 14 12 9 8 7 11 11 10 11 10 20 25 17 14 14 7 3 6 5 3 2 2 1 2 2 3 3 3 2 3 1 2 2 2 4 24 3 5 8 12 17
8 10 12 14 15 15 14 14 13 12 9 8 11 9 9 11 17 29 29 24 18 20 20 4 3 2 3 2 2 2 2 2 2 4 3 4 4 3 3 2 7 13 15 10 15 14 17
Wind_Direction
2 3 1 2 359 359 359 356 357 355 352 353 348 347 344 344 341 339 332 319 308 295 285 283 285 293 306 277 263 228 212 203 230 323 17 79 66 92 109 331 331 223 301 314 291 293 287
5 4 4 359 1 358 353 351 348 349 352 347 346 346 348 351 349 341 338 331 320 305 293 281 275 280 293 281 246 213 209 219 240 265 146 143 130 99 237 252 189 303 296 289 289 280 274
17 14 9 4 359 356 350 354 358 353 348 343 346 348 348 346 344 340 332 323 314 304 290 278 272 276 273 263 222 216 222 229 230 243 169 153 140 170 165 256 249 257 294 278 258 261 263
20 15 9 5 1 2 4 1 360 353 351 351 358 352 347 343 338 334 330 319 309 302 287 273 260 266 256 212 203 197 206 220 215 204 144 123 299 236 209 283 297 245 229 339 291 145 256
22 13 11 9 5 2 356 356 0 359 360 359 360 360 355 349 344 334 325 316 305 296 279 257 252 247 265 220 212 204 214 231 207 171 148 232 261 229 237 81 355 355 256 246 308 265 254
14 8 5 4 3 359 356 354 355 353 1 4 0 359 355 350 343 337 331 326 312 293 267 235 221 264 240 232 200 205 205 206 181 174 210 221 217 186 222 182 224 220 237 220 241 288 215
359 356 353 353 353 353 349 350 353 355 359 1 357 355 351 347 342 331 334 344 341 317 280 233 232 239 237 205 186 196 195 189 182 187 205 198 232 223 204 203 204 355 244 262 266 269 303
352 346 342 343 343 350 351 347 350 352 348 353 349 344 345 346 340 336 342 10 3 312 300 287 264 257 245 190 193 185 191 184 178 205 208 209 245 234 206 202 224 248 270 272 266 265 231
342 335 331 336 338 336 337 340 337 340 339 343 341 344 348 350 345 346 343 351 327 326 277 300 275 271 267 211 238 205 190 202 187 207 202 220 216 95 208 240 223 247 253 270 257 285 245
324 325 322 323 324 322 325 324 329 335 341 337 342 341 345 351 352 332 319 325 322 331 21 269 246 228 164 196 256 238 211 195 228 232 233 254 258 265 282 265 177 253 245 246 261 276 237
313 313 312 315 306 311 315 317 319 325 331 330 341 336 346 352 347 336 326 330 328 329 350 203 209 179 174 193 293 209 207 212 248 202 167 247 229 224 227 231 167 234 198 234 255 245 286
319 311 305 307 304 295 301 302 314 329 322 326 335 336 341 346 347 342 323 327 323 39 263 332 42 282 336 225 237 148 176 212 262 254 231 256 250 240 229 215 193 258 313 263 258 227 242
324 322 320 312 309 313 303 306 307 312 317 317 329 333 335 338 343 346 350 345 22 133 354 329 325 178 218 242 237 202 183 183 218 249 227 279 244 226 210 271 132 114 344 309 342 218 230
325 327 329 329 330 314 305 301 302 306 310 300 325 329 330 330 338 346 355 46 96 240 321 319 308 277 225 161 253 202 247 244 216 218 269 256 313 187 173 227 238 202 184 272 293 268 286
331 335 337 333 339 329 314 310 307 310 306 308 317 317 323 324 338 339 4 37 219 226 272 322 318 318 307 53 267 232 232 243 248 196 215 228 249 247 184 193 173 278 216 233 269 258 263
344 347 346 349 352 337 318 311 307 324 326 328 336 322 306 316 336 327 73 244 262 235 325 2 294 355 308 331 333 31 264 223 268 323 183 344 286 324 308 325 83 133 278 305 272 295 283
351 346 349 356 352 349 335 325 302 314 317 323 327 324 304 316 324 310 161 242 288 292 302 273 261 301 297 291 282 243 271 288 131 114 138 338 257 302 349 279 255 338 69 27 281 275 320
346 350 358 1 359 1 355 349 334 320 319 345 318 330 301 319 315 10 252 223 309 282 326 290 305 250 244 286 264 259 251 243 68 41 300 123 302 274 239 272 179 357 168 158 239 301 281
349 11 25 19 21 16 12 12 357 343 356 334 311 279 316 331 4 321 293 292 273 311 332 309 258 218 56 281 303 275 284 285 210 116 322 357 229 297 326 23 52 237 265 221 281 248 246
18 25 23 18 22 15 11 7 3 359 343 344 311 337 325 357 12 277 320 313 318 334 284 283 279 317 285 258 231 275 265 301 344 265 290 330 228 224 247 254 310 298 308 294 232 275 286
18 17 20 25 21 15 13 9 2 0 6 24 7 323 353 300 327 295 280 287 314 309 348 317 322 233 316 290 296 252 269 315 287 274 188 231 261 241 257 263 264 270 269 285 280 258 261
5 6 14 13 14 11 6 6 13 11 5 24 357 358 309 288 293 283 332 312 288 312 293 295 243 331 311 295 275 285 277 297 266 320 232 220 257 262 279 264 259 267 266 255 264 278 267
346 355 10 13 7 3 5 1 6 17 18 35 343 298 296 276 329 311 329 350 329 322 303 295 305 314 307 294 304 297 276 269 250 259 248 245 242 33 277 274 305 290 240 256 285 87 288
347 1 3 6 4 6 5 8 5 6 18 23 8 356 332 287 302 285 327 306 292 305 287 289 306 260 294 313 303 287 266 261 261 258 245 256 263 223 264 47 265 230 110 59 114 43 33
339 357 350 358 354 347 343 344 351 2 0 357 358 19 330 282 279 308 285 286 309 305 279 281 300 294 321 312 313 343 328 350 302 206 250 237 244 247 249 203 305 40 31 8 323 78 27
338 346 345 345 345 343 340 333 307 291 311 328 334 305 290 287 260 248 291 299 280 297 304 269 306 318 348 291 6 344 288 247 310 331 9 56 229 215 61 164 220 263 339 339 305 190 12
337 338 339 339 340 341 347 347 349 349 294 292 295 290 269 265 282 303 299 303 284 255 251 288 313 327 5 350 291 246 269 212 311 295 331 346 344 260 252 238 297 356 314 316 201 310 354
328 336 337 335 337 341 337 330 312 306 308 311 316 319 272 268 283 285 281 273 289 279 261 302 315 330 352 21 247 308 328 312 294 251 268 279 3 268 303 314 278 348 340 36 332 330 347
319 329 327 329 333 338 333 333 335 317 301 272 298 312 287 279 271 290 292 295 280 277 283 277 257 221 297 310 267 262 288 328 235 301 323 313 4 306 350 40 64 41 70 23 2 341 343